This is the latest recevied weather packets stored in our database for station/object KC4LZN. If no packets are shown the sender has not sent any weather packets the latest 10 day(s).
| Time | Temp. | Humidity | Pressure | Rain* | Wind** | Luminosity | Snow |
|---|---|---|---|---|---|---|---|
| 1777637744 | 22.78° C | 95% | 1013 hPa | 0 mm | - | 111 W/m² | - |
| 1777637440 | 22.78° C | 95% | 1012.8 hPa | 0 mm | - | 101 W/m² | - |
| 1777637138 | 22.78° C | 95% | 1012.6 hPa | 0 mm | - | 89 W/m² | - |
| 1777636833 | 22.78° C | 96% | 1012.7 hPa | 0 mm | - | 81 W/m² | - |
| 1777636529 | 22.78° C | 96% | 1012.8 hPa | 0 mm | - | 73 W/m² | - |
| 1777636226 | 22.22° C | 97% | 1012.7 hPa | 0 mm | - | 64 W/m² | - |
| 1777635921 | 22.22° C | 97% | 1012.8 hPa | 0 mm | - | 53 W/m² | - |
| 1777635617 | 22.22° C | 97% | 1012.6 hPa | 0 mm | - | 42 W/m² | - |
| 1777635314 | 22.22° C | 97% | 1012.8 hPa | 0 mm | - | 35 W/m² | - |
| 1777635010 | 22.22° C | 97% | 1012.5 hPa | 0 mm | - | 32 W/m² | - |
| 1777634707 | 22.22° C | 97% | 1012.4 hPa | 0 mm | - | 27 W/m² | - |
| 1777634404 | 22.22° C | 97% | 1012.3 hPa | 0 mm | - | 18 W/m² | - |
| 1777634101 | 22.22° C | 97% | 1012.5 hPa | 0 mm | - | 12 W/m² | - |
| 1777633797 | 22.22° C | 98% | 1012.3 hPa | 0 mm | - | 8 W/m² | - |
| 1777633496 | 22.22° C | 98% | 1012.2 hPa | 0 mm | - | 5 W/m² | - |
| 1777633193 | 21.67° C | 98% | 1012 hPa | 0 mm | - | 4 W/m² | - |
| 1777632890 | 21.67° C | 98% | 1012 hPa | 0 mm | - | 3 W/m² | - |
| 1777632586 | 22.22° C | 98% | 1011.9 hPa | 0 mm | - | 2 W/m² | - |
| 1777632283 | 21.67° C | 98% | 1011.8 hPa | 0 mm | - | 1 W/m² | - |
| 1777631979 | 22.22° C | 98% | 1011.8 hPa | 0 mm | - | 0 W/m² | - |
| 1777631678 | 22.22° C | 97% | 1012.1 hPa | 0 mm | - | 0 W/m² | - |
| 1777631375 | 22.22° C | 97% | 1012 hPa | 0 mm | - | 0 W/m² | - |
| 1777631072 | 21.67° C | 97% | 1011.9 hPa | 0 mm | - | 0 W/m² | - |
| 1777630768 | 22.22° C | 98% | 1011.8 hPa | 0 mm | - | 0 W/m² | - |
| 1777630465 | 22.22° C | 97% | 1012.1 hPa | 0 mm | - | 0 W/m² | - |
* Rain latest hour (hover to see other rain measurements)
** Current wind speed in m/s (hover to see current wind gust speed)